Weather WX

World > North America > United States > Minnesota

Oakdale, Minnesota Regional Weather

Lat: 44.99N, Lon: 92.97W
Wx Zone: MNZ063
Feedback

Oakdale, MN Regional Weather

Expires:201906180100;;653061
ASUS43 KMPX 180010
RWRMN 
WEATHER ROUNDUP FOR MINNESOTA
NATIONAL WEATHER SERVICE TWIN CITIES/CHANHASSEN MN
700 PM CDT MON JUN 17 2019


NOTE: "FAIR" INDICATES FEW OR NO CLOUDS BELOW 12,000 FEET WITH NO
SIGNIFICANT WEATHER AND/OR OBSTRUCTIONS TO VISIBILITY. N/A MEANS
CURRENT SKY AND/OR WEATHER CONDITIONS ARE NOT AVAILABLE.


MNZ060>063-068>070-180100-
   Twin Cities Metro   
  
CITY           SKY/WX    TMP DP  RH WIND       PRES   REMARKS
TWIN CITIES    PTSUNNY   74  51  44 NW3       29.97S                  
6HR MIN TEMP:  71; 6HR MAX TEMP:  75; 6HR PCP: TRACE;                

ST PAUL        FAIR      72  52  49 W7        29.96F                  
CRYSTAL        FAIR      72  54  53 NW5       29.95S                  
BLAINE         PTSUNNY   72  54  53 W6        29.97S                  
EDEN PRAIRIE   CLOUDY    73  53  49 NW6       29.96F                  
6HR MIN TEMP:  70; 6HR MAX TEMP:  77; 6HR PCP: TRACE;                

SOUTH ST PAUL  FAIR      72  51  47 W8        29.96S                  
LAKE ELMO        N/A     72  55  56 W7        29.97S                  
$$

SKY/WX - Weather  TMP - Temperature  DP - Dew Point  RH - Relative Humidity
WIND - Wind Direction/Speed PRES - Barometric Pressure VSB - Visibility
WCI - Wind Chill Index E13G22 Wind - East Wind 13 mph/Gusts of 22 mph